Temp
76 79 82 82 71 69 66 71 76 76 79 85 86 86 87 90 85 80 84 90 89 88 85 84 80 80 80 80 80 79 79 79 79 79 79 79 79 79 79 79 79 80 81 81 81 81 80 80 80
78 78 81 77 67 63 70 76 73 82 85 85 86 86 86 85 92 83 85 86 89 87 83 86 80 80 80 80 79 79 79 79 79 79 79 79 79 79 79 79 80 80 80 81 80 80 80 80 79
78 79 78 73 66 64 71 77 78 81 87 84 85 88 88 86 88 88 89 87 88 86 85 85 80 80 80 79 79 78 78 78 78 79 79 79 78 79 79 79 80 80 81 80 80 80 80 79 79
79 79 74 65 63 70 76 76 76 78 82 84 83 83 90 90 89 90 88 88 87 86 87 82 79 79 79 79 79 78 78 78 78 78 78 78 78 78 78 79 79 80 80 80 80 79 79 79 78
78 74 66 62 65 71 74 77 76 77 78 81 81 82 84 85 87 87 87 88 87 88 88 84 79 79 79 79 79 78 78 78 78 78 78 78 78 78 78 78 79 80 80 79 79 78 78 78 78
71 71 60 61 66 72 76 78 76 76 79 82 81 81 85 84 84 85 88 89 91 88 88 83 80 79 78 79 78 78 78 78 78 78 78 78 78 78 78 78 79 79 79 79 78 78 77 77 77
68 64 63 65 66 68 73 79 75 77 78 80 86 79 87 83 85 87 88 90 90 89 87 84 86 82 78 78 78 78 77 78 77 77 77 77 77 77 78 78 78 78 78 78 78 77 77 77 77
70 66 63 63 63 64 76 76 79 79 79 88 87 79 82 86 85 86 87 87 89 88 88 86 85 87 86 84 78 78 77 77 77 77 77 77 77 77 77 76 77 77 77 77 77 77 77 77 76
68 61 58 63 63 67 73 72 78 81 80 81 86 87 88 87 85 84 82 83 86 86 86 85 83 84 87 87 83 78 78 77 77 78 77 77 85 84 82 80 77 77 77 77 77 76 76 76 76
65 60 62 70 71 70 73 74 78 77 77 80 82 87 85 84 83 81 81 81 83 83 85 83 81 83 85 86 84 85 84 84 83 83 82 85 84 84 85 81 77 77 77 77 77 76 76 78 89
64 58 69 69 72 73 72 71 77 74 73 78 80 83 82 81 81 82 83 84 83 83 81 80 81 80 84 86 84 85 85 84 83 83 83 83 83 83 85 85 84 84 79 86 84 84 87 83 87
56 65 65 69 71 70 69 74 71 74 78 83 84 84 84 81 82 82 82 83 83 82 79 81 80 77 82 85 84 85 85 83 84 84 82 81 82 81 82 84 83 82 86 84 85 87 84 84 84
57 61 64 67 68 70 70 68 69 72 77 81 81 81 81 83 84 85 85 83 82 80 78 78 76 79 81 81 83 84 84 84 85 84 83 83 83 80 82 82 84 84 85 85 84 85 85 85 84
62 60 62 64 67 68 65 68 70 72 78 76 78 80 82 84 85 86 83 81 80 81 76 76 78 80 81 81 81 81 82 83 83 84 83 82 82 81 82 81 82 83 84 86 86 84 84 84 84
60 54 59 62 64 63 69 62 63 72 75 73 76 78 80 82 83 84 83 81 81 81 77 75 79 80 80 80 80 82 83 84 83 81 81 80 80 80 81 81 81 81 83 82 83 81 81 83 84
53 55 48 61 64 64 65 58 71 78 74 72 74 78 79 82 84 88 85 82 81 81 75 76 81 80 78 78 80 82 83 83 82 82 81 81 80 78 79 81 81 80 80 82 82 80 80 80 80
53 45 48 53 64 63 62 60 70 76 73 72 74 76 79 82 82 85 85 82 81 80 77 76 79 77 75 76 80 81 80 82 84 84 84 81 78 77 80 81 81 80 81 79 78 77 78 78 79
45 45 48 48 58 58 57 58 66 71 70 70 74 75 76 80 83 83 83 82 80 79 77 76 78 76 74 78 78 80 80 81 83 83 83 81 77 79 80 81 79 79 78 76 76 74 73 75 75
52 48 47 53 58 54 54 55 60 65 66 67 71 74 75 77 83 82 83 82 80 78 76 76 76 76 76 77 78 79 78 79 79 81 81 81 79 80 79 80 77 77 76 73 72 72 72 74 74
50 46 44 51 57 55 54 54 60 63 64 66 68 71 74 78 80 80 80 80 78 76 76 76 76 75 76 78 80 81 81 80 82 81 80 80 80 80 79 77 75 74 72 71 73 73 74 73 73
48 46 47 46 53 56 53 50 55 63 66 68 70 72 74 75 78 78 78 78 78 77 76 76 77 76 77 78 79 78 79 78 78 79 80 79 79 78 76 75 72 70 72 71 72 72 72 72 71
43 53 51 49 46 40 55 40 54 59 62 65 69 72 75 76 76 79 78 77 77 78 79 78 77 76 78 76 78 77 79 78 80 76 75 75 77 76 73 71 68 68 69 70 72 74 73 73 72
46 54 50 50 46 46 47 43 50 58 56 62 67 72 75 76 76 78 80 79 79 79 79 78 77 76 78 76 79 79 79 80 77 71 69 69 71 71 70 67 67 68 72 71 72 71 71 73 74
54 49 49 47 40 30 44 44 47 53 56 62 67 71 73 76 76 78 81 81 80 80 79 78 76 75 76 77 78 78 78 75 69 68 67 67 68 66 65 69 70 71 71 71 71 70 69 69 70
49 44 33 30 29 31 47 42 46 57 62 65 65 69 71 73 73 74 77 78 79 77 78 78 76 74 76 77 78 78 78 74 70 67 66 65 66 64 65 65 67 70 71 70 70 69 68 69 69
45 43 33 24 31 36 47 37 47 60 64 66 67 69 71 72 74 74 76 77 80 78 77 77 75 74 75 77 76 78 77 72 68 67 66 66 64 64 65 66 67 69 70 69 69 69 69 67 67
44 38 47 37 41 33 41 47 55 59 61 64 66 67 69 72 74 75 75 76 78 78 77 76 76 74 75 76 74 72 69 67 65 65 66 65 63 61 61 65 64 66 67 67 67 67 65 66 65
47 45 32 33 25 24 37 40 44 53 56 61 63 65 69 72 75 75 74 75 76 77 79 77 77 73 75 73 72 68 66 65 65 65 65 65 62 59 58 61 61 63 63 64 65 64 63 63 64
42 36 36 38 34 29 31 40 55 55 59 59 63 66 68 71 75 77 76 76 76 77 78 75 74 72 73 68 66 65 65 65 66 66 65 64 60 57 58 59 61 60 60 62 60 60 61 60 61
48 44 44 32 33 37 38 40 60 58 60 61 63 64 68 70 73 77 77 75 76 76 77 72 72 71 67 65 65 64 64 65 63 63 61 61 56 60 58 58 58 58 57 58 59 60 60 60 59
MSLP
1012.22 1012.14 1012.09 1011.58 1011.35 1009.83 1007.49 1006.07 1005.63 1005.02 1004.69 1004.17 1004.02 1003.68 1003.46 1003.33 1003.19 1004.26 1005.14 1005.40 1005.84 1006.49 1007.39 1008.13 1008.76 1009.34 1009.71 1009.95 1009.95 1010.16 1010.53 1011.07 1011.74 1012.06 1012.36 1012.81 1013.12 1013.48 1013.75 1014.02 1014.31 1014.54 1014.74 1014.92 1015.03 1015.22 1015.33 1015.50 1015.70
1012.08 1012.09 1011.82 1011.20 1010.13 1008.23 1005.92 1005.26 1004.57 1004.38 1004.20 1004.18 1003.99 1003.69 1003.31 1002.88 1003.17 1004.26 1004.85 1005.75 1006.12 1006.77 1007.54 1008.03 1008.82 1009.29 1009.82 1009.90 1010.14 1010.36 1010.65 1011.16 1011.74 1012.38 1012.67 1013.03 1013.34 1013.80 1014.02 1014.27 1014.40 1014.64 1014.83 1015.04 1015.18 1015.31 1015.46 1015.60 1015.80
1012.10 1011.98 1011.25 1010.37 1008.96 1006.74 1004.54 1004.41 1004.48 1004.61 1004.20 1004.33 1003.85 1003.75 1003.34 1002.97 1003.33 1003.80 1004.52 1005.36 1006.26 1007.04 1007.56 1008.09 1008.90 1009.30 1009.82 1010.04 1010.32 1010.65 1010.92 1011.27 1011.78 1012.30 1012.84 1013.35 1013.61 1013.90 1014.25 1014.54 1014.68 1014.79 1015.03 1015.15 1015.33 1015.51 1015.68 1015.76 1015.91
1011.86 1011.81 1011.69 1010.01 1007.38 1005.31 1004.43 1004.77 1004.97 1004.73 1004.69 1004.53 1004.43 1003.83 1003.55 1003.42 1003.44 1003.88 1004.78 1005.32 1006.22 1007.20 1007.59 1008.38 1009.01 1009.45 1009.80 1010.18 1010.52 1010.89 1011.17 1011.58 1011.92 1012.38 1012.79 1013.29 1013.80 1014.04 1014.40 1014.58 1014.75 1014.72 1014.90 1015.13 1015.30 1015.51 1015.72 1015.90 1016.04
1011.98 1011.47 1010.07 1008.61 1006.76 1005.08 1005.28 1005.54 1005.46 1005.08 1004.91 1004.63 1004.72 1003.80 1003.68 1003.82 1004.12 1004.45 1004.78 1005.27 1005.67 1006.80 1007.39 1008.37 1008.95 1009.41 1009.83 1010.23 1010.63 1010.98 1011.36 1011.63 1012.00 1012.40 1012.79 1013.26 1013.63 1013.88 1014.12 1014.46 1014.68 1014.92 1014.96 1015.24 1015.53 1015.82 1016.05 1016.18 1016.26
1011.28 1010.98 1009.30 1007.30 1006.06 1004.76 1005.48 1005.78 1005.69 1005.48 1005.16 1004.74 1004.68 1004.25 1003.71 1004.38 1004.52 1004.81 1005.14 1005.31 1005.66 1006.40 1007.17 1008.23 1009.00 1009.31 1009.76 1010.09 1010.51 1010.98 1011.41 1011.81 1012.08 1012.61 1012.98 1013.38 1013.73 1013.95 1014.28 1014.56 1014.76 1015.02 1015.22 1015.43 1015.74 1015.88 1016.12 1016.35 1016.52
1010.44 1010.07 1007.86 1007.06 1005.98 1004.82 1005.34 1005.76 1005.56 1005.21 1005.08 1004.62 1004.58 1004.26 1003.55 1004.20 1004.65 1004.96 1005.30 1005.66 1006.15 1006.67 1007.34 1008.10 1008.61 1009.28 1009.66 1010.08 1010.52 1010.88 1011.25 1011.78 1012.22 1012.74 1013.12 1013.44 1013.78 1014.15 1014.43 1014.78 1015.04 1015.22 1015.38 1015.58 1015.80 1016.06 1016.17 1016.39 1016.55
1010.60 1009.94 1007.70 1006.69 1006.04 1004.01 1005.21 1005.30 1005.17 1004.88 1004.30 1004.42 1004.47 1003.74 1003.46 1003.91 1004.68 1005.17 1005.67 1006.10 1006.40 1006.97 1007.40 1008.04 1008.42 1008.86 1009.42 1010.18 1010.50 1010.94 1011.18 1011.72 1012.20 1012.69 1013.10 1013.53 1013.90 1014.30 1014.67 1014.93 1015.22 1015.48 1015.54 1015.69 1015.90 1016.03 1016.24 1016.31 1016.52
1010.98 1009.39 1006.40 1005.86 1005.90 1004.96 1005.48 1005.24 1005.22 1004.96 1004.48 1004.24 1003.72 1003.48 1003.55 1003.92 1004.71 1005.15 1005.77 1006.11 1006.35 1006.90 1007.35 1008.02 1008.47 1008.89 1009.23 1009.91 1010.67 1011.05 1011.37 1011.64 1012.15 1012.61 1013.13 1013.58 1013.70 1014.10 1014.48 1014.70 1015.12 1015.33 1015.52 1015.78 1015.88 1016.02 1016.07 1016.20 1016.44
1010.02 1007.96 1005.78 1006.06 1005.91 1005.26 1005.16 1005.03 1004.93 1004.83 1004.27 1003.75 1003.54 1003.59 1003.92 1004.35 1004.70 1004.90 1004.92 1005.28 1005.62 1006.21 1006.84 1007.66 1008.32 1008.74 1009.16 1009.80 1010.54 1010.95 1011.29 1011.62 1011.89 1012.24 1012.78 1013.10 1013.57 1013.82 1014.12 1014.73 1015.17 1015.38 1015.53 1015.77 1016.04 1016.01 1016.12 1015.90 1015.78
1009.33 1006.52 1006.54 1006.14 1006.00 1005.74 1005.14 1004.99 1005.08 1004.59 1003.82 1003.60 1003.10 1003.34 1003.86 1004.17 1004.68 1004.87 1005.05 1005.00 1004.89 1005.99 1006.84 1007.58 1008.14 1008.72 1009.10 1009.53 1010.30 1010.65 1011.02 1011.40 1011.81 1012.01 1012.45 1012.96 1013.44 1013.88 1014.16 1014.60 1015.07 1015.20 1015.61 1015.29 1015.60 1015.66 1015.56 1015.59 1015.62
1009.42 1007.69 1007.54 1006.80 1006.50 1006.16 1005.38 1005.13 1004.44 1004.16 1003.13 1003.39 1003.31 1003.51 1003.72 1004.02 1004.15 1004.40 1004.76 1005.11 1005.34 1005.88 1006.92 1007.34 1008.12 1008.72 1008.99 1009.38 1010.14 1010.34 1010.72 1011.13 1011.43 1011.73 1012.17 1012.54 1012.96 1013.52 1013.80 1014.06 1014.76 1015.25 1015.11 1015.29 1015.37 1015.49 1015.68 1015.73 1015.74
1009.33 1008.57 1007.98 1007.42 1006.97 1006.28 1006.04 1004.62 1004.86 1003.52 1003.64 1003.46 1003.48 1003.46 1003.57 1003.69 1003.66 1003.96 1004.28 1004.93 1005.60 1006.04 1006.92 1007.24 1008.04 1008.50 1008.81 1009.34 1009.72 1010.12 1010.53 1010.88 1011.07 1011.50 1011.96 1012.24 1012.69 1013.31 1013.81 1014.13 1014.28 1014.76 1014.98 1015.10 1015.19 1015.37 1015.44 1015.47 1015.59
1009.17 1008.84 1008.11 1007.47 1006.71 1006.28 1005.60 1004.82 1004.96 1001.78 1003.43 1003.26 1003.13 1002.82 1002.68 1002.83 1002.95 1003.19 1003.87 1004.16 1004.83 1005.63 1006.51 1007.05 1007.64 1008.14 1008.66 1009.04 1009.52 1009.98 1010.32 1010.64 1010.99 1011.18 1011.61 1012.11 1012.40 1012.85 1013.26 1013.85 1014.38 1014.34 1014.76 1015.00 1015.09 1015.50 1015.53 1015.51 1015.47
1009.35 1008.70 1007.82 1007.13 1006.64 1005.90 1005.47 1004.30 1001.78 1003.12 1003.17 1002.87 1002.32 1002.08 1001.74 1001.93 1002.26 1002.23 1002.54 1003.18 1003.96 1004.78 1006.21 1006.86 1007.24 1007.83 1008.40 1008.92 1009.43 1009.73 1010.11 1010.55 1010.79 1011.18 1011.68 1012.16 1012.51 1013.12 1013.40 1013.46 1013.93 1014.29 1014.46 1015.11 1015.29 1015.68 1015.75 1015.54 1015.56
1009.49 1008.66 1007.39 1006.14 1005.64 1005.38 1005.48 1001.06 1000.49 1001.40 1002.11 1001.76 1001.55 1001.31 1000.87 1000.98 1001.18 1001.11 1001.64 1002.48 1003.56 1004.69 1005.71 1006.73 1006.96 1007.51 1008.32 1008.83 1009.27 1009.60 1009.88 1010.35 1010.81 1011.22 1011.66 1012.21 1012.59 1013.21 1013.60 1013.82 1013.94 1014.10 1014.41 1014.78 1015.30 1015.86 1015.63 1015.70 1015.88
1009.04 1007.72 1006.94 1006.27 1005.46 1004.88 1004.31 1001.58 1001.40 1001.35 1001.57 1001.27 1000.75 1000.46 999.92 999.97 1000.38 1000.44 1001.06 1001.96 1002.77 1003.74 1005.05 1006.01 1006.68 1007.20 1008.10 1008.72 1009.18 1009.62 1010.04 1010.38 1010.46 1010.84 1011.36 1012.12 1012.58 1012.96 1013.52 1013.65 1013.82 1014.00 1014.34 1014.92 1015.43 1015.86 1015.78 1015.77 1015.92
1007.82 1007.75 1007.06 1006.02 1005.58 1005.21 1004.09 1002.87 1002.35 1001.62 1001.72 1001.29 1000.57 1000.02 999.70 999.41 999.39 999.94 1000.55 1001.59 1002.59 1003.42 1004.70 1005.70 1006.54 1007.00 1007.80 1008.51 1009.02 1009.57 1009.97 1010.19 1010.33 1010.86 1011.15 1011.77 1012.48 1012.91 1013.29 1013.60 1013.63 1013.93 1014.52 1015.24 1015.64 1016.01 1016.22 1016.18 1015.98
1007.78 1007.52 1006.74 1006.10 1005.64 1005.28 1004.10 1003.29 1002.84 1002.40 1001.74 1001.24 1000.47 999.80 999.50 999.10 999.19 999.73 1000.10 1001.11 1002.08 1003.19 1004.15 1004.96 1005.87 1006.55 1007.31 1007.82 1008.00 1008.70 1009.11 1009.86 1010.41 1010.88 1011.22 1011.66 1012.12 1012.60 1013.12 1013.68 1013.96 1014.24 1014.76 1015.39 1015.91 1016.16 1016.42 1016.21 1016.01
1007.55 1007.16 1006.68 1006.29 1005.71 1004.96 1003.84 1002.57 1002.53 1002.13 1001.68 1001.24 1000.48 999.66 999.25 998.90 998.89 999.43 999.88 1000.71 1001.51 1002.36 1003.46 1004.59 1005.28 1005.85 1006.45 1007.10 1007.37 1007.99 1008.76 1009.70 1010.19 1010.77 1011.18 1011.66 1012.18 1012.56 1013.15 1013.69 1014.25 1014.70 1015.12 1015.68 1015.70 1015.92 1016.21 1016.26 1016.50
1006.60 1006.33 1006.07 1006.00 1005.30 1004.50 1003.86 1001.99 1001.68 1001.19 1000.99 1000.68 999.90 999.26 999.02 998.61 998.37 998.86 999.41 1000.11 1001.09 1002.00 1002.79 1003.52 1004.08 1004.94 1005.79 1006.65 1007.36 1008.16 1008.98 1009.71 1010.15 1010.45 1010.94 1011.60 1012.05 1012.57 1013.12 1013.72 1014.45 1014.89 1015.38 1015.68 1015.87 1016.22 1016.10 1016.16 1016.72
1005.93 1006.31 1006.10 1005.77 1005.38 1003.76 1003.52 1000.62 1000.63 1000.47 999.90 999.60 999.17 998.47 998.10 998.38 998.34 998.40 998.85 999.56 1000.22 1000.92 1001.86 1002.89 1003.72 1004.51 1005.49 1006.34 1006.70 1007.28 1007.66 1008.62 1009.37 1010.30 1011.12 1011.72 1012.06 1012.93 1013.46 1014.00 1014.78 1014.92 1015.48 1015.59 1016.07 1016.19 1016.28 1016.11 1016.40
1005.88 1006.04 1005.95 1005.54 1004.88 1004.12 1003.09 1001.70 999.77 1000.25 999.48 998.71 998.30 997.93 997.88 998.30 998.09 997.90 997.98 998.58 999.28 1000.31 1001.08 1002.10 1003.28 1004.31 1004.93 1005.75 1006.06 1006.95 1007.66 1008.62 1009.51 1010.57 1011.34 1012.03 1012.85 1013.39 1013.54 1014.17 1014.98 1015.06 1015.43 1015.88 1016.20 1016.62 1016.48 1016.48 1016.71
1005.99 1006.04 1005.79 1005.74 1005.81 1003.83 1002.66 1001.63 998.60 998.85 998.59 998.28 997.82 997.60 997.58 997.75 997.78 997.61 997.66 998.17 998.96 999.98 1000.90 1001.80 1002.72 1003.78 1004.72 1005.39 1006.06 1006.72 1007.60 1008.65 1009.73 1010.67 1011.59 1012.39 1013.09 1013.50 1013.58 1013.81 1014.96 1015.34 1015.60 1016.10 1016.50 1016.81 1016.96 1017.03 1017.34
1005.96 1005.94 1005.70 1005.30 1005.00 1003.04 1002.44 1001.38 999.33 998.21 997.88 997.93 997.84 997.30 997.44 997.67 997.74 997.64 997.74 998.03 998.59 999.53 1000.38 1001.33 1002.36 1003.38 1004.22 1004.97 1005.74 1006.56 1007.59 1008.74 1009.75 1010.72 1011.67 1012.61 1013.36 1013.76 1014.61 1015.35 1015.57 1015.88 1015.83 1016.14 1016.45 1017.00 1017.38 1017.52 1017.66
1005.72 1005.84 1005.40 1004.50 1003.54 1002.29 1001.61 1000.01 998.01 997.94 997.70 997.92 997.82 997.48 997.28 997.34 997.57 997.62 997.72 997.96 998.35 999.23 1000.10 1000.92 1001.82 1002.69 1003.72 1004.69 1005.71 1006.74 1007.84 1009.01 1010.27 1011.15 1012.18 1012.93 1014.10 1014.81 1015.18 1016.30 1015.77 1016.29 1016.45 1016.31 1016.64 1017.27 1017.75 1018.10 1018.26
1005.03 1005.13 1005.27 1005.23 1004.35 1003.19 1001.08 999.60 997.80 997.14 996.68 996.66 996.78 997.27 997.19 997.02 997.21 997.50 997.68 997.97 998.36 999.02 999.79 1000.47 1001.32 1002.52 1003.56 1004.74 1005.92 1007.00 1008.13 1009.31 1010.47 1011.63 1012.58 1013.16 1014.18 1015.16 1016.52 1017.36 1016.67 1016.87 1017.09 1016.78 1017.36 1017.75 1018.24 1018.64 1018.92
1004.94 1005.82 1006.04 1005.58 1004.22 1002.50 1000.19 998.69 996.80 995.92 995.62 995.70 995.81 996.00 996.43 996.58 996.54 996.98 997.54 997.61 998.06 998.58 999.33 1000.31 1001.39 1002.75 1003.68 1004.87 1006.06 1007.08 1008.22 1009.59 1010.64 1011.81 1012.69 1013.28 1014.04 1014.90 1016.43 1016.81 1018.41 1017.31 1017.62 1017.79 1017.98 1018.22 1019.00 1019.15 1019.28
1004.95 1005.37 1005.66 1005.10 1004.44 1002.45 999.84 997.58 996.69 995.88 995.77 995.62 995.77 995.79 995.91 995.94 995.89 996.09 996.85 997.38 997.74 998.35 999.02 1000.17 1001.48 1002.77 1003.88 1005.09 1006.28 1007.35 1008.53 1009.72 1010.84 1011.78 1012.95 1013.58 1014.61 1015.38 1016.46 1017.87 1018.48 1017.64 1018.48 1018.51 1018.44 1019.04 1019.42 1019.52 1019.59
1004.40 1004.34 1004.36 1004.46 1003.62 1002.40 1000.43 997.64 996.48 996.32 995.92 996.07 995.73 995.94 995.92 995.97 995.76 995.98 996.58 997.12 997.48 998.11 999.03 1000.33 1001.57 1002.74 1004.06 1005.30 1006.63 1007.79 1008.86 1009.99 1011.28 1012.53 1013.44 1014.32 1015.27 1016.31 1017.10 1017.38 1018.14 1018.73 1018.71 1018.84 1019.27 1019.55 1019.77 1019.75 1020.01
Wind_Speed
3 2 1 2 4 3 6 8 2 7 4 3 3 4 7 10 6 2 0 10 18 21 20 22 20 18 17 18 19 21 21 20 19 19 19 18 18 17 17 15 14 12 13 12 12 12 11 11 11
3 3 1 2 5 7 10 9 17 12 4 5 4 5 4 4 5 5 10 10 20 20 18 20 21 20 19 18 18 19 21 20 19 17 18 17 17 16 16 14 13 13 13 13 12 12 11 11 11
4 1 4 4 5 13 12 8 11 11 11 4 5 3 4 2 1 5 8 18 21 19 18 19 19 20 19 19 18 18 20 20 20 19 18 17 17 16 14 13 13 13 13 12 11 11 10 10 10
4 3 2 8 17 20 15 1 1 5 2 2 3 8 4 3 2 5 19 21 21 18 18 21 19 19 19 19 19 19 20 20 20 20 19 18 17 16 14 14 13 13 13 12 11 11 10 10 9
1 1 6 9 22 19 9 5 1 1 3 4 4 5 5 3 3 13 20 21 24 20 18 19 19 19 19 20 20 20 20 20 20 20 19 18 17 16 15 13 12 11 12 11 10 8 7 7 7
5 2 8 19 24 22 12 12 6 6 7 7 6 5 5 4 8 12 16 20 22 21 19 18 18 20 20 20 20 19 19 19 19 18 18 17 16 15 13 12 11 10 9 9 8 7 6 5 4
7 5 16 19 20 23 16 8 10 11 15 16 7 7 4 3 6 12 14 16 18 19 18 17 18 18 20 20 20 20 20 19 18 17 16 16 15 13 12 10 9 8 8 8 7 6 6 5 4
5 4 16 15 16 30 9 5 6 13 16 8 7 8 9 1 12 13 13 15 17 17 17 17 16 18 17 16 20 19 19 19 18 17 16 15 13 11 10 9 7 7 7 7 6 5 4 4 3
4 10 18 25 21 17 3 4 3 1 8 5 8 6 6 6 15 16 15 16 17 15 17 16 16 15 16 16 16 17 19 19 18 16 15 12 9 11 12 7 8 8 7 6 5 4 4 4 4
12 14 24 11 17 16 11 15 13 7 7 8 7 4 4 12 15 17 20 19 21 20 20 17 16 16 16 13 16 14 14 12 12 13 14 10 10 9 7 7 7 6 6 5 3 3 2 3 1
11 24 18 14 17 17 19 16 11 12 14 11 12 4 4 9 12 14 15 19 22 20 15 17 16 16 17 14 11 8 8 8 9 14 12 10 8 7 6 5 4 4 5 3 4 4 2 2 1
15 18 20 18 17 15 15 16 17 19 21 11 12 5 5 8 11 15 15 16 20 22 18 19 17 13 16 11 10 11 9 9 9 11 14 10 8 9 8 6 5 4 3 3 3 2 2 1 1
20 17 15 12 16 24 17 21 19 23 9 12 11 10 11 11 13 13 16 16 16 20 18 18 14 16 15 14 11 11 10 10 10 11 12 9 9 8 7 6 6 4 3 3 3 3 2 1 2
11 16 17 15 24 20 14 20 21 28 19 19 19 22 21 20 17 15 17 21 21 20 18 16 19 18 16 13 14 11 10 10 10 10 10 12 8 8 9 8 6 5 4 3 2 2 2 2 3
11 17 17 21 18 16 17 26 36 18 18 16 16 15 17 16 13 17 23 23 24 21 18 17 20 19 17 16 14 12 10 10 9 8 11 10 8 8 6 7 6 5 4 3 2 2 2 1 1
8 11 12 5 17 18 13 31 29 17 18 23 24 22 20 19 16 16 21 23 22 20 19 18 17 19 16 13 12 10 9 9 8 7 8 11 8 7 6 6 5 5 3 3 2 3 2 2 1
12 16 15 12 13 12 24 21 11 14 13 16 18 19 21 18 14 15 21 22 23 21 21 20 19 20 15 15 12 11 11 9 9 8 8 10 8 7 7 5 4 5 4 3 4 3 1 1 2
18 17 17 13 3 8 14 21 18 16 12 10 13 13 16 17 17 15 21 21 21 21 19 18 16 17 15 13 10 9 9 9 7 8 7 10 7 9 7 5 5 5 5 5 4 4 4 1 2
20 21 24 17 17 16 20 17 14 12 14 11 14 13 12 14 11 9 18 20 21 19 20 22 20 18 14 13 13 11 11 9 8 6 9 10 8 10 8 4 5 5 5 6 5 4 3 3 4
21 23 21 23 19 17 20 23 15 18 17 14 14 15 14 14 12 10 16 20 22 23 21 20 20 18 16 12 10 8 9 7 7 7 7 7 8 8 7 6 6 7 6 6 5 3 2 3 4
21 22 20 22 18 19 19 26 23 22 16 15 18 17 15 15 15 11 16 20 20 21 22 21 21 20 17 14 10 8 9 7 8 8 7 8 9 9 9 8 7 6 4 5 5 3 2 3 3
20 17 22 20 19 18 17 21 19 8 9 17 20 19 17 13 11 12 15 19 21 21 21 20 20 19 17 18 14 13 12 10 7 8 7 7 9 8 8 10 7 7 5 7 5 3 4 3 3
17 17 19 21 21 20 18 13 16 14 15 18 16 20 17 9 11 14 16 18 20 20 20 18 17 17 17 17 14 13 11 9 8 7 9 7 8 9 10 9 7 7 6 6 6 5 5 4 2
14 11 9 6 10 12 19 16 17 19 19 13 12 14 14 11 12 13 15 15 14 15 16 18 19 17 17 17 16 15 14 12 9 8 7 6 6 7 10 10 8 7 8 8 7 7 8 7 5
7 9 7 8 10 11 14 15 19 5 16 15 6 7 6 4 6 10 13 14 14 16 17 17 20 19 19 19 17 16 14 13 11 11 8 9 8 8 7 7 8 7 9 9 8 8 7 6 6
11 14 9 9 12 14 12 13 17 21 25 14 11 8 12 10 4 7 11 14 14 16 18 19 21 20 20 18 16 14 14 8 7 8 8 8 7 8 11 6 9 9 9 10 9 7 6 7 6
3 13 16 16 18 11 8 14 22 19 19 19 20 14 14 13 9 8 9 12 13 15 18 19 20 18 19 18 13 12 13 14 12 13 12 12 13 11 7 5 10 10 9 11 10 8 8 6 5
19 5 4 6 5 10 11 16 14 8 21 22 21 20 18 16 13 8 8 12 13 15 16 17 16 16 18 16 13 13 16 15 14 13 14 16 15 14 12 9 6 11 11 10 9 8 7 6 5
5 4 7 4 5 5 9 7 7 12 12 4 12 16 18 18 17 13 8 10 13 14 15 15 17 18 16 15 15 16 16 16 14 15 16 15 15 13 15 11 9 12 10 9 10 9 7 7 7
14 15 15 7 6 8 10 14 9 4 6 3 11 9 11 16 16 15 8 8 12 14 15 16 16 16 15 17 16 16 16 15 15 14 16 17 15 15 14 13 12 10 10 10 9 8 7 9 8
Wind_Direction
256 157 179 189 238 263 243 229 239 192 230 164 307 258 293 271 229 228 51 161 149 150 151 154 150 151 151 150 137 132 132 132 134 135 136 136 131 133 133 130 128 126 125 124 121 119 118 116 114
184 139 130 132 237 231 249 212 220 200 178 319 267 241 255 275 231 117 120 154 153 148 151 153 152 152 155 143 136 134 132 131 130 129 131 132 130 131 128 127 129 131 132 129 127 126 125 125 125
148 9 201 211 216 229 248 210 243 218 241 266 295 234 288 266 160 153 131 147 149 152 153 153 154 148 147 139 136 134 131 130 130 131 130 130 132 131 129 130 133 135 135 134 131 128 129 130 133
170 161 135 232 222 241 243 203 140 160 196 225 353 266 267 28 351 151 147 147 150 154 158 153 150 146 143 140 138 137 133 132 133 134 135 136 135 131 132 137 139 142 144 143 139 140 141 142 144
92 189 218 234 240 248 242 229 132 147 344 309 354 274 281 36 79 142 150 155 154 157 158 156 149 144 142 142 141 140 137 138 138 137 138 138 139 140 143 147 146 147 146 144 142 139 140 145 148
174 257 221 231 235 247 243 242 244 248 269 271 271 284 278 100 139 152 159 162 158 157 156 156 151 146 146 146 143 141 140 141 139 140 140 138 143 144 146 149 152 151 146 140 133 131 131 123 116
226 207 233 248 253 261 249 225 225 244 244 236 254 272 277 161 152 158 162 161 160 157 155 160 160 151 148 148 146 146 143 142 140 140 141 145 146 148 151 149 146 144 136 129 128 133 130 120 112
225 245 241 231 234 255 250 215 250 231 253 235 213 233 241 55 158 153 155 162 162 162 160 160 160 161 161 156 150 149 144 144 142 143 145 146 145 146 142 140 143 139 136 135 133 129 124 117 113
166 233 239 230 230 241 151 221 220 201 242 202 201 263 318 150 154 153 156 163 164 166 164 162 163 165 165 160 156 150 150 147 144 146 147 146 160 161 159 138 149 156 141 130 139 138 139 115 105
207 229 238 246 240 248 248 243 250 233 200 225 252 216 88 150 169 174 172 174 174 173 171 167 167 167 163 162 161 160 156 159 159 161 163 166 164 165 167 157 162 145 139 147 149 140 136 195 197
216 242 238 241 240 236 247 250 241 246 242 235 245 254 169 162 184 200 198 190 181 173 170 176 164 167 170 165 166 165 166 163 167 166 166 166 164 165 172 159 167 161 167 180 185 182 204 170 249
259 246 256 264 252 253 247 257 242 236 241 239 251 251 195 208 201 203 209 198 186 180 177 176 168 167 173 161 173 168 173 173 172 175 173 168 172 174 173 166 158 188 177 166 187 221 223 227 347
250 269 271 286 261 266 267 260 264 254 234 234 251 258 243 251 246 231 209 196 194 184 180 177 168 174 170 169 170 177 179 182 180 178 178 173 176 174 174 160 164 177 180 184 191 223 237 206 229
279 293 285 282 264 255 257 270 260 251 241 239 250 260 260 253 243 239 207 195 194 187 181 174 178 175 172 174 174 178 185 183 186 183 181 183 179 172 170 161 172 167 192 207 219 274 275 264 250
274 291 290 267 260 269 245 261 245 258 254 244 225 237 246 241 220 227 209 199 191 188 180 185 179 176 176 177 180 185 186 187 189 186 181 182 180 183 179 162 168 177 167 218 226 225 205 129 173
276 273 273 285 246 232 215 254 254 250 224 226 232 239 245 246 240 228 206 199 188 180 179 183 184 177 177 180 183 186 187 193 186 181 181 186 175 162 181 169 168 153 159 186 196 215 123 118 247
247 262 262 287 260 259 216 254 275 254 224 232 232 232 240 238 234 229 200 195 183 180 177 180 185 180 177 182 182 188 186 195 190 187 181 176 168 161 194 175 153 137 143 149 165 141 87 131 312
264 251 246 253 238 304 271 260 277 281 287 282 263 247 244 240 232 204 193 190 184 176 176 176 185 180 176 180 177 183 185 192 188 187 183 170 167 168 185 193 147 133 132 140 124 104 74 53 351
269 265 265 254 265 277 279 277 277 279 288 267 274 264 250 241 240 204 194 187 179 175 174 180 185 182 177 184 179 182 188 187 184 183 179 175 169 177 178 179 127 123 123 122 135 113 154 86 25
250 256 257 272 258 262 274 278 269 274 271 268 268 270 258 251 234 196 190 184 180 178 180 181 187 181 184 187 176 181 177 192 182 175 176 163 173 164 165 154 134 124 121 135 127 145 145 72 28
246 246 248 245 256 253 270 272 270 270 257 253 260 255 254 252 245 202 183 185 182 180 183 187 183 182 184 181 163 142 154 150 169 178 166 167 161 155 153 137 126 114 125 120 112 132 141 136 73
257 245 251 252 253 258 232 266 262 245 267 230 233 245 244 247 248 229 190 183 187 189 187 184 185 181 181 176 177 180 179 178 181 168 161 149 144 151 131 116 103 121 123 114 125 123 123 124 121
259 269 248 250 252 253 236 250 256 244 255 243 231 234 240 228 241 221 206 195 194 187 189 185 179 181 181 182 180 177 181 164 144 136 136 125 138 133 121 116 121 112 117 119 116 118 91 91 81
259 250 251 269 280 248 245 235 250 234 244 263 241 227 225 209 225 225 217 208 196 189 184 181 178 180 181 182 180 181 175 157 138 141 131 135 131 122 109 95 128 132 128 125 114 98 86 83 80
217 223 234 240 220 247 240 241 249 266 226 231 175 176 165 143 200 225 219 207 201 189 187 182 179 180 183 184 178 183 172 152 138 141 144 135 123 101 77 122 133 131 122 117 109 98 93 87 81
268 238 228 247 249 260 227 241 246 229 235 213 213 226 274 284 235 228 227 218 209 193 188 185 182 177 182 179 177 174 157 128 124 118 114 107 98 83 105 130 109 113 116 108 103 102 88 83 79
257 227 247 260 259 268 266 248 256 250 223 222 227 224 230 248 247 234 226 223 212 200 195 191 185 173 173 169 152 140 125 123 121 115 116 117 109 94 70 75 95 106 102 97 102 93 89 85 74
229 110 202 202 235 229 237 254 252 231 222 211 210 205 214 230 239 223 212 213 210 204 195 192 182 170 165 150 139 130 121 123 122 125 132 129 120 116 118 110 108 101 91 93 99 94 81 79 57
182 215 212 234 210 260 271 252 289 264 236 222 233 224 220 221 230 226 205 209 204 198 191 178 167 158 150 128 127 122 125 128 131 126 132 123 117 115 120 122 115 92 98 91 86 82 76 72 66
267 262 248 249 208 235 265 271 297 325 238 223 247 206 213 225 228 235 224 190 190 187 177 169 152 149 130 124 127 125 129 123 124 126 129 126 114 117 115 108 100 99 83 74 82 86 77 70 69